Terminal Aerodrome Forecast
Issued by NWS

Home | Current Version | Previous Version | Graphics & Text | Print | Product List | Glossary Off
Versions: 1 2 3 4 5 6 7 8 9 10 11 12 13 14 15 16 17 18 19 20 21 22 23 24 25 26 27 28 29 30 31 32 33 34 35 36 37 38 39

000
FTUS43 KDDC 080900 AAC
TAFHYS
TAF AMD
KHYS 080924Z 0809/0906 05011KT P6SM VCTS FEW060CB SCT080 BKN100
     FM081000 05010KT P6SM BKN110
     FM081800 36007KT P6SM SCT250=

USA.gov is the U.S. government's official web portal to all federal, state and local government web resources and services.